Regional Weather Roundup
Issued by NWS Little Rock, AR

Home | Current Version | Previous Version | Text Only | Print | Product List | Glossary Off
Versions: 1 2 3 4 5 6 7 8 9 10 11 12 13 14 15 16 17 18 19 20 21 22 23 24 25 26 27 28 29 30 31 32 33 34 35 36 37 38 39 40 41 42 43 44 45 46 47

000
ASUS44 KLZK 242305
RWRLZK

WEATHER ROUNDUP FOR ARKANSAS
NATIONAL WEATHER SERVICE LITTLE ROCK AR
500 PM CST SAT JAN 24 2015

NOTE: "FAIR" INDICATES FEW OR NO CLOUDS BELOW 12,000 FEET WITH NO
SIGNIFICANT WEATHER AND/OR OBSTRUCTIONS TO VISIBILITY.

ARZ001-003-010-029-250000-
NORTHWEST ARKANSAS

CITY           SKY/WX    TMP DP  RH WIND       PRES   REMARKS
FAYETTEVILLE   CLEAR     53  31  42 SW8       29.92F
FORT SMITH     CLEAR     55  34  45 SW9       29.94F
HARRISON       CLEAR     54  30  40 W8        29.88F
BENTONVILLE    CLEAR     54  30  40 W8        29.91F
ROGERS         CLEAR     54  32  43 SW9       29.90F
SILOAM SPGS    CLEAR     54  30  40 SW9       29.92F
HIGHFILL       CLEAR     54  32  43 SW10      29.89F
SPRINGDALE     CLEAR     54  30  40 SW9       29.91F
$$

ARZ004-005-016-250000-
NORTH CENTRAL ARKANSAS

CITY           SKY/WX    TMP DP  RH WIND       PRES   REMARKS
BATESVILLE     CLEAR     59  28  31 SW6       29.88F
FLIPPIN        CLEAR     57  28  33 W7        29.87S
MTN HOME       CLEAR     55  30  38 VRB5      29.87F
$$

ARZ040-041-250000-
WEST CENTRAL ARKANSAS

CITY           SKY/WX    TMP DP  RH WIND       PRES   REMARKS
MENA           CLEAR     59  32  36 W5        29.95F
MOUNT IDA      CLEAR     58  30  34 CALM      29.92F
$$

ARZ009-017-025-026-028-250000-
NORTHEAST ARKANSAS

CITY           SKY/WX    TMP DP  RH WIND       PRES   REMARKS
CORNING        FAIR      50  37  62 SW9       29.86S
JONESBORO      CLEAR     52  34  50 SW12      29.88F
NEWPORT        CLEAR     53  36  52 S10       29.90F
WALNUT RIDGE   CLEAR     55  30  38 SW8       29.87S
BLYTHEVILLE    CLEAR     50  35  56 SW8       29.89F
$$

ARZ022-023-033-042-044-250000-
CENTRAL ARKANSAS

CITY           SKY/WX    TMP DP  RH WIND       PRES   REMARKS
LITTLE ROCK    PTCLDY    61  26  26 W7        29.93S
N LITTLE ROCK  PTCLDY    58  33  38 W6        29.93S
JACKSONVILLE   CLEAR     58  29  33 W7        29.91F
SEARCY         CLEAR     56  29  35 SW6       29.92F
HOT SPRINGS    CLEAR     59  31  34 NW5       29.94F
RUSSELLVILLE   CLEAR     57  32  38 SW8       29.91F
CLINTON        FAIR      55  32  41 S6        29.90F HAZE
$$

ARZ036-250000-
EAST ARKANSAS

CITY           SKY/WX    TMP DP  RH WIND       PRES   REMARKS
WEST MEMPHIS   CLEAR     53  34  48 SW8       29.91F
$$

ARZ050-053-066-070-073-250000-
SOUTHWEST ARKANSAS

CITY           SKY/WX    TMP DP  RH WIND       PRES   REMARKS
ARKADELPHIA    FAIR      57  38  49 SW9       29.97S
CAMDEN         CLEAR     59  28  31 MISG      29.98S
TEXARKANA      CLEAR     57  34  41 W7        29.99F
EL DORADO      CLEAR     57  30  35 W6        29.99F
DE QUEEN       CLEAR     58  34  40 SW12      29.96S
$$

ARZ056-057-069-250000-
SOUTHEAST ARKANSAS

CITY           SKY/WX    TMP DP  RH WIND       PRES   REMARKS
PINE BLUFF     CLEAR     57  31  37 SW9       29.95S
STUTTGART      CLEAR     57  34  41 SW8       29.94F
MONTICELLO     CLEAR     57  30  35 W7        29.97S

$$





USA.gov is the U.S. government's official web portal to all federal, state and local government web resources and services.